SCP
-0 -0 0 0 0 0 0 0 0 0 0 0 0 0 0 0 0 0 0 0 0 0 0 0 -0 0 0 0 0 0 0 0 0 0 0 0 0 -0 -0 -0 -0 -0 -0 -0 0 -0 -0 -0 0
-0 0 0 0 0 0 0 0 0 0 0 0 0 0 0 0 0 0 0 0 0 0 0 0 0 0 0 0 0 0 0 0 0 0 0 0 0 0 0 -0 -0 -0 -0 -0 0 0 0 0 0
0 0 0 0 0 0 0 0 0 0 0 0 0 0 0 0 0 0 0 0 0 0 0 0 0 0 0 0 0 0 0 0 0 0 0 0 0 0 0 0 0 -0 -0 -0 -0 0 0 0 0
0 0 0 0 0 0 0 0 0 0 0 0 0 0 0 0 0 0 0 0 0 0 0 0 -0 -0 -0 -0 -0 -0 0 0 0 0 0 0 0 0 0 0 0 0 0 0 0 0 0 0 0
0 0 0 0 0 0 0 0 0 0 0 0 0 0 0 0 0 0 0 0 0 0 0 -0 -0 -0 -0 -0 -0 0 0 0 0 0 0 0 0 0 0 0 0 0 0 0 0 0 0 0 0
0 0 0 0 0 0 0 0 0 0 0 0 0 0 0 0 0 0 0 -0 0 -0 0 0 -0 -0 -0 -0 0 0 0 0 0 0 0 0 0 0 0 0 0 0 0 0 0 0 0 0 0
0 0 0 0 0 0 0 0 0 0 0 0 0 0 0 0 0 -0 -0 -0 -0 0 0 0 0 0 0 0 0 0 0 0 0 0 0 0 0 0 0 0 0 0 0 0 0 0 0 0 0
0 0 0 0 0 0 0 0 0 0 0 0 0 -0 -0 -0 0 -0 -0 -0 0 0 0 0 0 0 0 0 0 0 0 0 0 0 0 0 0 0 0 0 0 0 0 0 0 0 0 0 0
0 0 0 0 0 0 0 0 0 0 0 0 0 -0 -0 -0 -0 0 0 0 0 0 0 0 0 0 0 0 0 0 0 0 0 0 0 0 0 0 0 0 0 0 0 0 0 0 0 0 0
0 0 0 0 0 0 0 0 0 0 0 0 0 0 0 -0 -0 -0 0 0 0 0 0 0 0 0 0 0 0 0 0 0 0 0 0 0 0 0 0 0 0 0 0 0 0 0 0 0 0
0 0 0 0 0 0 0 0 0 0 0 0 0 -0 -0 -0 -0 0 0 0 0 0 0 0 0 0 0 0 0 0 0 0 0 0 0 0 0 0 0 0 0 0 0 0 0 0 0 0 0
0 0 0 0 0 0 0 0 0 0 0 0 -0 -0 -0 -0 -0 0 0 0 0 0 0 0 0 0 0 0 0 0 0 0 0 0 0 0 0 0 0 0 0 0 0 0 0 0 0 0 0
0 0 0 0 0 0 0 0 0 -0 0 0 0 0 -0 -0 0 0 0 0 0 0 0 0 0 0 0 0 0 0 0 0 0 0 0 0 0 0 0 0 0 0 0 0 0 0 0 0 0
0 0 0 0 0 0 0 0 0 0 0 0 0 -0 -0 -0 0 0 0 0 0 0 0 0 0 0 0 0 0 0 0 0 0 0 0 0 0 0 0 0 0 0 0 0 0 0 0 0 0
0 0 0 0 0 0 0 0 0 0 0 0 -0 -0 0 0 0 0 0 0 0 0 0 0 0 0 0 0 0 0 0 0 0 0 0 0 0 0 0 0 0 0 0 0 0 0 0 0 0
0 0 0 0 0 0 0 0 0 0 0 0 -0 0 0 0 0 0 0 0 0 0 0 0 0 0 0 0 0 0 0 0 0 0 0 0 0 0 0 0 0 0 0 0 0 0 0 0 0
0 0 0 0 0 0 0 0 0 0 0 0 0 0 0 0 0 0 0 0 0 0 0 0 0 0 0 0 0 0 0 0 0 0 0 0 0 0 0 0 0 0 0 0 0 0 0 0 0
0 0 0 0 0 0 0 -0 0 0 0 0 0 0 0 0 0 0 0 0 0 0 0 0 0 0 0 0 0 0 0 0 0 0 0 0 0 0 0 0 0 0 0 0 0 0 0 0 0
0 0 0 0 0 0 0 0 0 0 0 0 0 0 0 0 0 0 0 0 0 0 0 0 0 0 0 0 0 0 0 0 0 0 0 0 0 0 0 0 0 0 0 0 0 0 0 0 0
0 0 0 0 0 0 0 0 0 0 0 0 0 0 0 0 0 0 0 0 0 0 0 0 0 0 0 0 0 0 0 0 0 0 0 0 0 0 0 0 0 0 0 0 0 0 0 0 0
0 0 0 0 0 0 0 -0 0 0 0 0 0 0 0 0 0 0 0 0 0 0 0 0 0 0 0 0 0 0 0 0 0 0 0 0 0 0 0 0 0 0 0 0 0 0 0 0 0
0 0 0 0 0 0 0 0 0 0 0 0 0 0 0 0 0 0 0 0 0 0 0 0 0 0 0 0 0 0 0 0 0 0 0 0 0 0 0 0 0 0 0 0 0 0 0 0 0
0 0 0 0 0 0 0 0 0 0 0 0 0 0 0 0 0 0 0 0 0 0 0 0 0 0 0 0 0 0 0 0 0 0 0 0 0 0 0 0 0 0 0 0 0 0 0 0 0
0 0 0 0 0 0 0 0 0 0 0 0 0 0 0 0 0 0 0 0 0 0 0 0 0 0 0 0 0 0 0 0 0 0 0 0 0 0 0 0 0 0 0 0 0 0 0 0 0
0 0 0 0 0 0 0 0 0 0 0 0 0 0 0 0 0 0 0 0 0 0 0 0 0 0 0 0 0 0 0 0 0 0 0 0 0 0 0 0 0 0 0 0 0 0 0 0 0
0 0 0 0 0 0 0 0 0 0 0 0 0 0 0 0 0 0 0 0 0 0 0 0 0 0 0 0 0 0 0 0 0 0 0 0 0 0 0 0 0 0 0 0 0 0 0 0 0
0 0 0 0 0 0 0 0 0 0 0 0 0 0 0 0 0 0 0 0 0 0 0 0 0 0 0 0 0 0 0 0 0 0 0 0 0 0 0 0 0 0 0 0 0 0 0 0 0
0 0 0 0 0 0 0 0 0 0 0 0 0 0 0 -0 -0 0 0 0 0 0 0 0 0 0 0 0 0 0 0 0 0 0 0 0 0 0 0 0 0 0 0 0 0 0 0 0 0
0 0 0 0 0 0 0 0 0 0 0 0 0 0 0 0 0 0 0 0 0 0 0 0 0 0 0 0 0 0 0 0 0 0 0 0 0 0 0 0 0 0 0 0 0 0 0 0 0
0 0 0 0 0 0 0 0 0 0 0 0 0 0 0 0 0 0 0 0 0 0 0 0 0 0 0 0 0 0 0 0 0 0 0 0 0 0 0 0 0 0 0 0 0 0 0 0 0
Wind_Speed_500mb
19 23 16 5 8 5 8 8 1 9 7 7 4 2 6 10 4 4 15 4 2 4 6 5 11 7 9 8 5 7 8 12 16 20 22 24 24 22 19 18 19 16 14 18 20 18 16 12 8
19 19 9 1 8 11 7 8 11 5 15 11 10 5 3 6 7 8 12 5 4 4 7 9 10 13 16 10 15 15 15 17 17 19 20 22 26 28 24 21 19 18 17 17 20 23 19 19 21
17 13 5 3 6 12 5 15 13 11 8 6 7 5 4 10 9 8 11 6 5 8 11 12 11 12 14 20 22 21 22 25 23 23 23 25 26 26 28 29 25 22 21 20 22 26 26 27 32
5 4 4 10 13 4 3 20 14 16 7 8 9 7 6 15 12 9 6 7 10 15 18 20 20 18 18 21 23 20 27 29 28 27 27 32 32 30 31 33 31 32 29 29 27 27 34 41 45
6 3 9 10 12 6 8 14 17 18 11 13 11 11 9 14 14 7 6 10 12 16 18 20 20 21 22 21 21 23 29 29 29 27 31 35 36 35 36 38 38 36 38 38 36 36 34 37 43
8 5 12 23 14 11 10 11 15 19 12 9 8 12 10 18 13 6 4 6 9 12 14 16 18 19 21 22 23 23 24 25 27 28 34 35 36 39 39 39 42 45 46 46 46 44 43 42 42
10 10 19 13 17 14 15 14 14 17 15 12 10 10 8 19 14 8 3 2 6 8 11 12 13 12 12 16 20 24 27 31 33 35 36 37 40 41 44 48 50 47 50 55 53 52 52 51 49
8 6 10 10 18 16 16 16 7 12 10 11 12 9 7 25 17 10 6 2 2 5 7 10 14 16 17 18 18 18 18 20 22 25 30 36 41 45 45 45 44 45 45 49 54 55 59 59 57
11 9 13 13 16 10 19 16 9 7 7 12 14 8 10 24 20 17 12 6 0 4 5 7 9 13 15 16 17 19 20 23 24 25 27 29 29 30 32 39 47 52 52 52 51 51 56 57 65
8 10 10 3 5 9 21 15 15 9 14 16 17 25 24 24 24 22 17 12 9 8 4 3 8 12 15 17 19 22 24 25 27 28 30 32 34 36 38 39 40 42 47 56 60 59 58 57 55
2 5 6 7 6 8 15 10 9 12 18 27 27 34 34 31 30 26 21 20 16 11 6 5 7 11 16 21 26 31 34 35 36 36 37 38 39 39 40 41 43 45 48 50 51 56 61 59 59
8 6 2 8 6 8 9 5 10 28 12 12 23 27 35 38 35 31 28 23 18 13 9 7 9 12 17 23 28 32 34 33 33 36 39 42 44 46 46 46 47 49 49 51 53 54 57 58 63
6 10 6 4 4 2 5 14 15 34 36 24 28 32 39 39 37 34 30 27 22 16 11 7 8 12 18 24 29 34 37 38 40 41 43 46 48 50 52 53 53 51 53 56 58 58 59 59 60
9 12 12 4 1 1 6 9 4 11 31 39 36 39 41 43 41 36 36 29 23 17 12 7 7 11 18 25 30 35 38 39 40 41 44 47 51 55 59 60 60 60 60 58 58 62 66 65 64
17 6 4 8 2 2 4 16 28 24 7 37 47 42 44 48 46 47 35 33 26 20 16 10 6 11 18 24 29 34 37 40 41 42 44 48 52 57 60 62 63 64 66 67 66 63 63 68 69
5 4 8 6 2 4 4 13 6 17 29 33 46 47 48 53 54 48 44 37 30 24 16 12 7 12 20 27 34 39 40 43 43 43 46 49 53 57 62 66 66 66 67 69 70 69 67 64 67
6 5 11 5 2 4 14 15 4 12 21 34 42 52 54 54 55 52 47 40 33 28 20 13 12 17 23 31 38 42 43 44 43 45 49 52 55 59 65 66 67 68 70 71 71 68 64 64 63
10 9 7 9 5 7 14 39 31 22 21 34 39 46 53 54 56 51 47 43 40 34 27 21 20 24 29 36 43 45 45 42 44 45 49 53 58 62 67 70 72 72 73 71 69 67 61 59 60
3 3 8 2 4 8 16 36 44 38 38 51 59 57 55 56 49 52 51 49 46 40 34 27 29 31 35 42 49 49 48 44 44 48 51 55 60 64 67 70 72 71 70 69 65 63 61 57 48
4 5 7 2 2 5 12 38 47 39 40 53 49 49 52 50 50 59 60 54 48 43 37 34 34 35 39 46 54 54 54 52 52 53 54 58 63 65 68 70 72 71 70 65 58 53 53 50 41
4 7 3 5 9 3 17 19 15 3 9 24 32 35 32 38 43 49 60 60 53 48 40 37 37 36 40 47 54 55 57 59 61 61 63 62 64 65 67 67 69 69 65 61 55 47 47 54 49
6 6 6 2 6 8 7 13 13 7 18 17 22 20 18 21 29 38 56 67 62 48 40 38 37 35 43 51 51 54 57 62 63 66 68 68 67 67 66 66 63 62 63 62 58 53 50 51 60
3 5 4 2 0 6 4 9 13 4 4 4 7 14 11 13 17 29 54 71 63 54 46 39 35 35 44 52 49 53 56 60 66 68 69 68 67 67 65 63 60 57 59 65 65 62 60 59 62
18 6 4 3 2 7 4 7 9 7 2 3 4 6 8 13 20 27 39 53 59 56 48 37 32 35 43 46 46 51 55 61 65 66 68 68 69 68 65 65 61 60 54 56 61 67 68 66 68
5 5 3 4 5 6 4 7 23 10 9 7 3 1 9 18 23 29 37 45 51 51 43 36 33 36 40 42 44 48 53 59 63 64 67 69 70 69 67 64 60 59 59 60 60 64 68 73 80
12 5 7 11 6 1 4 13 9 8 7 8 12 13 11 16 23 27 31 38 44 45 41 37 37 37 40 44 43 48 52 56 58 61 64 67 67 66 64 63 64 65 66 66 66 68 67 70 79
10 11 5 11 3 4 6 11 28 14 17 26 26 16 20 15 16 25 31 38 42 45 43 41 43 42 44 45 43 46 50 53 56 58 60 63 63 62 62 65 65 68 71 70 69 75 76 70 74
5 3 5 3 9 11 7 11 18 4 6 5 5 20 22 20 24 27 29 37 41 47 46 48 47 47 48 42 42 45 48 50 52 57 59 57 57 58 62 63 66 69 68 68 72 76 74 77 80
9 7 4 6 5 7 5 10 11 18 14 8 7 8 10 13 15 14 24 36 41 46 52 53 50 51 48 39 39 42 43 45 48 51 53 52 52 55 59 61 64 68 71 76 75 77 83 84 85
4 10 16 8 10 3 5 14 5 10 8 10 17 18 19 14 11 28 33 37 38 41 49 53 52 53 41 37 36 38 39 42 44 45 44 46 49 51 56 64 69 74 78 84 79 78 73 78 82
Wind_Direction_500mb
334 352 2 9 229 246 144 137 158 144 128 61 104 269 79 42 359 35 155 78 20 17 7 305 272 261 290 302 313 290 285 286 292 292 298 302 309 319 310 316 323 313 302 296 305 292 265 240 248
321 349 10 331 254 225 150 150 174 146 122 123 100 95 119 94 94 108 160 282 289 338 347 333 305 278 283 292 300 294 298 295 291 288 286 290 299 301 306 300 307 305 306 292 279 288 253 251 256
317 342 303 274 234 244 189 168 142 135 166 178 132 71 126 133 151 149 180 244 295 306 301 298 299 286 270 280 281 282 293 293 289 290 293 291 286 282 290 293 285 289 291 292 285 272 267 270 270
282 333 68 243 226 171 146 156 152 162 146 164 164 152 132 177 171 190 227 279 296 294 289 288 287 285 279 275 274 274 284 287 291 282 297 296 295 294 290 286 285 278 279 285 280 272 271 268 272
174 192 222 227 208 169 167 159 177 181 162 161 184 164 171 179 183 205 264 290 297 297 297 294 289 283 283 286 288 282 275 281 289 291 291 293 291 290 291 293 288 280 277 276 277 272 266 266 271
172 208 221 227 194 174 177 176 183 199 174 149 184 160 169 192 187 206 252 305 326 336 331 318 305 294 287 287 288 291 294 293 293 289 285 285 289 290 290 289 290 287 283 279 276 271 270 270 270
216 208 234 231 190 179 181 168 205 184 172 189 165 196 182 191 193 195 178 74 29 17 21 18 11 357 331 311 300 297 295 295 294 294 293 291 289 285 283 282 281 281 278 276 275 275 274 269 268
185 232 191 210 193 189 159 171 184 204 183 172 180 218 203 202 201 199 189 165 11 5 10 16 20 20 19 15 6 0 349 338 325 314 304 296 291 288 288 288 284 279 281 277 273 273 274 273 268
160 216 222 194 175 163 163 186 187 226 192 200 211 211 207 186 196 195 189 186 266 11 20 22 19 13 8 2 353 345 338 332 328 327 325 324 323 319 311 298 289 286 284 281 280 281 277 273 275
217 229 208 89 136 158 167 194 179 212 212 231 225 217 201 197 199 196 190 191 215 228 246 354 8 6 3 358 353 347 344 339 336 334 330 327 323 320 318 312 306 301 294 286 281 279 278 280 275
69 253 119 110 98 131 165 201 191 219 230 230 222 206 206 204 200 201 204 209 211 219 239 300 335 349 356 357 354 350 343 339 337 335 334 334 331 328 325 319 312 307 304 296 293 286 280 275 270
142 84 27 134 150 158 176 187 233 222 232 226 217 200 202 202 204 207 210 209 213 223 247 286 321 341 348 345 344 342 338 336 333 333 334 335 334 333 329 324 320 316 312 306 299 294 286 285 276
106 142 97 111 129 148 229 237 253 253 240 238 207 201 205 207 209 210 210 212 217 224 241 282 326 337 342 343 344 341 339 338 335 334 334 334 332 330 327 324 320 315 310 306 303 297 289 284 280
119 134 134 145 46 269 271 242 259 252 225 220 214 211 210 213 212 213 215 214 220 224 231 257 308 337 341 340 339 338 334 330 327 326 327 327 326 326 324 322 319 316 313 307 301 297 295 290 281
124 110 179 199 234 219 299 246 230 227 229 209 217 217 217 219 216 218 216 216 218 218 219 231 272 326 335 337 335 331 328 326 323 322 322 322 322 321 320 318 316 315 312 309 306 300 292 289 287
144 221 210 129 276 193 243 259 190 217 219 221 220 221 223 222 221 221 217 213 214 215 217 231 274 316 331 335 334 330 326 325 322 321 320 320 320 319 317 316 316 313 309 307 305 301 297 290 286
190 224 223 200 155 276 226 273 222 224 215 231 226 224 225 226 225 221 219 216 215 213 215 239 274 304 319 325 329 327 324 323 321 321 321 321 319 318 316 315 313 311 308 305 302 297 293 291 288
178 217 218 238 136 223 230 260 261 242 233 238 235 230 229 228 227 222 221 217 215 216 226 247 273 294 310 320 325 323 323 322 320 320 319 319 319 319 317 315 313 310 306 303 298 293 289 287 287
57 230 250 162 86 306 257 273 274 264 248 250 245 241 238 235 231 223 222 219 217 221 233 254 276 293 306 316 321 319 321 320 320 320 320 319 320 318 316 314 312 310 305 302 296 290 288 286 286
154 233 248 220 161 290 288 280 276 265 247 248 252 245 241 239 229 225 222 218 219 225 237 255 273 286 303 311 318 318 320 321 320 319 320 322 321 319 318 315 312 310 306 302 297 290 287 282 280
169 228 229 298 305 245 299 265 260 182 237 246 249 245 239 238 233 227 218 216 218 225 239 255 270 284 299 307 314 316 317 320 323 323 321 321 321 320 317 316 313 310 307 302 297 289 282 282 278
220 135 116 346 308 278 338 293 306 264 287 245 247 231 237 235 233 218 210 212 216 222 237 253 265 283 298 306 309 313 317 318 320 320 321 323 323 322 323 320 315 311 309 304 298 289 281 277 274
107 151 128 139 146 318 180 251 267 351 256 14 26 197 223 232 214 207 203 210 217 228 236 247 262 284 297 301 304 311 314 316 318 320 321 323 324 326 325 321 316 310 304 303 304 302 296 281 272
135 130 109 114 186 242 101 263 270 232 116 94 76 119 171 167 165 172 188 203 214 221 229 244 260 280 295 297 300 308 311 314 317 320 322 324 326 326 325 323 320 316 310 302 299 298 294 287 279
208 194 263 240 189 256 133 228 259 280 249 237 59 109 170 175 175 183 192 200 207 217 231 243 255 281 292 297 298 306 311 314 318 322 323 326 327 327 327 326 322 317 309 303 296 290 286 284 281
188 260 228 242 220 77 134 232 245 193 240 266 274 220 207 198 200 204 210 217 222 228 236 245 255 284 296 299 299 306 311 315 320 321 324 327 327 326 326 326 323 322 315 308 304 298 291 281 276
154 217 11 101 71 258 233 264 279 237 256 243 233 226 235 228 230 228 229 233 234 236 240 251 263 287 298 298 299 307 312 316 320 322 326 329 329 327 329 332 328 324 320 314 309 304 298 287 283
257 115 151 238 208 232 225 274 250 173 156 113 166 209 227 244 246 243 250 251 249 243 246 258 267 288 296 292 299 307 313 318 321 325 329 330 330 332 336 333 330 327 322 319 313 306 297 291 286
166 208 229 293 256 246 232 234 229 207 207 198 171 165 223 243 241 245 280 266 259 256 256 263 272 285 290 286 296 305 312 318 322 328 329 331 335 342 337 336 335 332 329 326 317 304 301 294 292
272 220 195 223 204 243 336 258 208 225 233 222 241 255 243 238 250 287 285 273 266 265 261 265 272 280 273 282 295 304 312 319 324 330 332 335 345 347 343 343 340 339 335 333 320 309 309 304 297
Wind_Speed_850mb
19 23 16 5 8 5 8 8 1 9 7 7 4 2 6 10 4 4 15 4 2 4 6 5 11 7 9 8 5 7 8 12 16 20 22 24 24 22 19 18 19 16 14 18 20 18 16 12 8
19 19 9 1 8 11 7 8 11 5 15 11 10 5 3 6 7 8 12 5 4 4 7 9 10 13 16 10 15 15 15 17 17 19 20 22 26 28 24 21 19 18 17 17 20 23 19 19 21
17 13 5 3 6 12 5 15 13 11 8 6 7 5 4 10 9 8 11 6 5 8 11 12 11 12 14 20 22 21 22 25 23 23 23 25 26 26 28 29 25 22 21 20 22 26 26 27 32
5 4 4 10 13 4 3 20 14 16 7 8 9 7 6 15 12 9 6 7 10 15 18 20 20 18 18 21 23 20 27 29 28 27 27 32 32 30 31 33 31 32 29 29 27 27 34 41 45
6 3 9 10 12 6 8 14 17 18 11 13 11 11 9 14 14 7 6 10 12 16 18 20 20 21 22 21 21 23 29 29 29 27 31 35 36 35 36 38 38 36 38 38 36 36 34 37 43
8 5 12 23 14 11 10 11 15 19 12 9 8 12 10 18 13 6 4 6 9 12 14 16 18 19 21 22 23 23 24 25 27 28 34 35 36 39 39 39 42 45 46 46 46 44 43 42 42
10 10 19 13 17 14 15 14 14 17 15 12 10 10 8 19 14 8 3 2 6 8 11 12 13 12 12 16 20 24 27 31 33 35 36 37 40 41 44 48 50 47 50 55 53 52 52 51 49
8 6 10 10 18 16 16 16 7 12 10 11 12 9 7 25 17 10 6 2 2 5 7 10 14 16 17 18 18 18 18 20 22 25 30 36 41 45 45 45 44 45 45 49 54 55 59 59 57
11 9 13 13 16 10 19 16 9 7 7 12 14 8 10 24 20 17 12 6 0 4 5 7 9 13 15 16 17 19 20 23 24 25 27 29 29 30 32 39 47 52 52 52 51 51 56 57 65
8 10 10 3 5 9 21 15 15 9 14 16 17 25 24 24 24 22 17 12 9 8 4 3 8 12 15 17 19 22 24 25 27 28 30 32 34 36 38 39 40 42 47 56 60 59 58 57 55
2 5 6 7 6 8 15 10 9 12 18 27 27 34 34 31 30 26 21 20 16 11 6 5 7 11 16 21 26 31 34 35 36 36 37 38 39 39 40 41 43 45 48 50 51 56 61 59 59
8 6 2 8 6 8 9 5 10 28 12 12 23 27 35 38 35 31 28 23 18 13 9 7 9 12 17 23 28 32 34 33 33 36 39 42 44 46 46 46 47 49 49 51 53 54 57 58 63
6 10 6 4 4 2 5 14 15 34 36 24 28 32 39 39 37 34 30 27 22 16 11 7 8 12 18 24 29 34 37 38 40 41 43 46 48 50 52 53 53 51 53 56 58 58 59 59 60
9 12 12 4 1 1 6 9 4 11 31 39 36 39 41 43 41 36 36 29 23 17 12 7 7 11 18 25 30 35 38 39 40 41 44 47 51 55 59 60 60 60 60 58 58 62 66 65 64
17 6 4 8 2 2 4 16 28 24 7 37 47 42 44 48 46 47 35 33 26 20 16 10 6 11 18 24 29 34 37 40 41 42 44 48 52 57 60 62 63 64 66 67 66 63 63 68 69
5 4 8 6 2 4 4 13 6 17 29 33 46 47 48 53 54 48 44 37 30 24 16 12 7 12 20 27 34 39 40 43 43 43 46 49 53 57 62 66 66 66 67 69 70 69 67 64 67
6 5 11 5 2 4 14 15 4 12 21 34 42 52 54 54 55 52 47 40 33 28 20 13 12 17 23 31 38 42 43 44 43 45 49 52 55 59 65 66 67 68 70 71 71 68 64 64 63
10 9 7 9 5 7 14 39 31 22 21 34 39 46 53 54 56 51 47 43 40 34 27 21 20 24 29 36 43 45 45 42 44 45 49 53 58 62 67 70 72 72 73 71 69 67 61 59 60
3 3 8 2 4 8 16 36 44 38 38 51 59 57 55 56 49 52 51 49 46 40 34 27 29 31 35 42 49 49 48 44 44 48 51 55 60 64 67 70 72 71 70 69 65 63 61 57 48
4 5 7 2 2 5 12 38 47 39 40 53 49 49 52 50 50 59 60 54 48 43 37 34 34 35 39 46 54 54 54 52 52 53 54 58 63 65 68 70 72 71 70 65 58 53 53 50 41
4 7 3 5 9 3 17 19 15 3 9 24 32 35 32 38 43 49 60 60 53 48 40 37 37 36 40 47 54 55 57 59 61 61 63 62 64 65 67 67 69 69 65 61 55 47 47 54 49
6 6 6 2 6 8 7 13 13 7 18 17 22 20 18 21 29 38 56 67 62 48 40 38 37 35 43 51 51 54 57 62 63 66 68 68 67 67 66 66 63 62 63 62 58 53 50 51 60
3 5 4 2 0 6 4 9 13 4 4 4 7 14 11 13 17 29 54 71 63 54 46 39 35 35 44 52 49 53 56 60 66 68 69 68 67 67 65 63 60 57 59 65 65 62 60 59 62
18 6 4 3 2 7 4 7 9 7 2 3 4 6 8 13 20 27 39 53 59 56 48 37 32 35 43 46 46 51 55 61 65 66 68 68 69 68 65 65 61 60 54 56 61 67 68 66 68
5 5 3 4 5 6 4 7 23 10 9 7 3 1 9 18 23 29 37 45 51 51 43 36 33 36 40 42 44 48 53 59 63 64 67 69 70 69 67 64 60 59 59 60 60 64 68 73 80
12 5 7 11 6 1 4 13 9 8 7 8 12 13 11 16 23 27 31 38 44 45 41 37 37 37 40 44 43 48 52 56 58 61 64 67 67 66 64 63 64 65 66 66 66 68 67 70 79
10 11 5 11 3 4 6 11 28 14 17 26 26 16 20 15 16 25 31 38 42 45 43 41 43 42 44 45 43 46 50 53 56 58 60 63 63 62 62 65 65 68 71 70 69 75 76 70 74
5 3 5 3 9 11 7 11 18 4 6 5 5 20 22 20 24 27 29 37 41 47 46 48 47 47 48 42 42 45 48 50 52 57 59 57 57 58 62 63 66 69 68 68 72 76 74 77 80
9 7 4 6 5 7 5 10 11 18 14 8 7 8 10 13 15 14 24 36 41 46 52 53 50 51 48 39 39 42 43 45 48 51 53 52 52 55 59 61 64 68 71 76 75 77 83 84 85
4 10 16 8 10 3 5 14 5 10 8 10 17 18 19 14 11 28 33 37 38 41 49 53 52 53 41 37 36 38 39 42 44 45 44 46 49 51 56 64 69 74 78 84 79 78 73 78 82
Wind_Direction_850mb
334 352 2 9 229 246 144 137 158 144 128 61 104 269 79 42 359 35 155 78 20 17 7 305 272 261 290 302 313 290 285 286 292 292 298 302 309 319 310 316 323 313 302 296 305 292 265 240 248
321 349 10 331 254 225 150 150 174 146 122 123 100 95 119 94 94 108 160 282 289 338 347 333 305 278 283 292 300 294 298 295 291 288 286 290 299 301 306 300 307 305 306 292 279 288 253 251 256
317 342 303 274 234 244 189 168 142 135 166 178 132 71 126 133 151 149 180 244 295 306 301 298 299 286 270 280 281 282 293 293 289 290 293 291 286 282 290 293 285 289 291 292 285 272 267 270 270
282 333 68 243 226 171 146 156 152 162 146 164 164 152 132 177 171 190 227 279 296 294 289 288 287 285 279 275 274 274 284 287 291 282 297 296 295 294 290 286 285 278 279 285 280 272 271 268 272
174 192 222 227 208 169 167 159 177 181 162 161 184 164 171 179 183 205 264 290 297 297 297 294 289 283 283 286 288 282 275 281 289 291 291 293 291 290 291 293 288 280 277 276 277 272 266 266 271
172 208 221 227 194 174 177 176 183 199 174 149 184 160 169 192 187 206 252 305 326 336 331 318 305 294 287 287 288 291 294 293 293 289 285 285 289 290 290 289 290 287 283 279 276 271 270 270 270
216 208 234 231 190 179 181 168 205 184 172 189 165 196 182 191 193 195 178 74 29 17 21 18 11 357 331 311 300 297 295 295 294 294 293 291 289 285 283 282 281 281 278 276 275 275 274 269 268
185 232 191 210 193 189 159 171 184 204 183 172 180 218 203 202 201 199 189 165 11 5 10 16 20 20 19 15 6 0 349 338 325 314 304 296 291 288 288 288 284 279 281 277 273 273 274 273 268
160 216 222 194 175 163 163 186 187 226 192 200 211 211 207 186 196 195 189 186 266 11 20 22 19 13 8 2 353 345 338 332 328 327 325 324 323 319 311 298 289 286 284 281 280 281 277 273 275
217 229 208 89 136 158 167 194 179 212 212 231 225 217 201 197 199 196 190 191 215 228 246 354 8 6 3 358 353 347 344 339 336 334 330 327 323 320 318 312 306 301 294 286 281 279 278 280 275
69 253 119 110 98 131 165 201 191 219 230 230 222 206 206 204 200 201 204 209 211 219 239 300 335 349 356 357 354 350 343 339 337 335 334 334 331 328 325 319 312 307 304 296 293 286 280 275 270
142 84 27 134 150 158 176 187 233 222 232 226 217 200 202 202 204 207 210 209 213 223 247 286 321 341 348 345 344 342 338 336 333 333 334 335 334 333 329 324 320 316 312 306 299 294 286 285 276
106 142 97 111 129 148 229 237 253 253 240 238 207 201 205 207 209 210 210 212 217 224 241 282 326 337 342 343 344 341 339 338 335 334 334 334 332 330 327 324 320 315 310 306 303 297 289 284 280
119 134 134 145 46 269 271 242 259 252 225 220 214 211 210 213 212 213 215 214 220 224 231 257 308 337 341 340 339 338 334 330 327 326 327 327 326 326 324 322 319 316 313 307 301 297 295 290 281
124 110 179 199 234 219 299 246 230 227 229 209 217 217 217 219 216 218 216 216 218 218 219 231 272 326 335 337 335 331 328 326 323 322 322 322 322 321 320 318 316 315 312 309 306 300 292 289 287
144 221 210 129 276 193 243 259 190 217 219 221 220 221 223 222 221 221 217 213 214 215 217 231 274 316 331 335 334 330 326 325 322 321 320 320 320 319 317 316 316 313 309 307 305 301 297 290 286
190 224 223 200 155 276 226 273 222 224 215 231 226 224 225 226 225 221 219 216 215 213 215 239 274 304 319 325 329 327 324 323 321 321 321 321 319 318 316 315 313 311 308 305 302 297 293 291 288
178 217 218 238 136 223 230 260 261 242 233 238 235 230 229 228 227 222 221 217 215 216 226 247 273 294 310 320 325 323 323 322 320 320 319 319 319 319 317 315 313 310 306 303 298 293 289 287 287
57 230 250 162 86 306 257 273 274 264 248 250 245 241 238 235 231 223 222 219 217 221 233 254 276 293 306 316 321 319 321 320 320 320 320 319 320 318 316 314 312 310 305 302 296 290 288 286 286
154 233 248 220 161 290 288 280 276 265 247 248 252 245 241 239 229 225 222 218 219 225 237 255 273 286 303 311 318 318 320 321 320 319 320 322 321 319 318 315 312 310 306 302 297 290 287 282 280
169 228 229 298 305 245 299 265 260 182 237 246 249 245 239 238 233 227 218 216 218 225 239 255 270 284 299 307 314 316 317 320 323 323 321 321 321 320 317 316 313 310 307 302 297 289 282 282 278
220 135 116 346 308 278 338 293 306 264 287 245 247 231 237 235 233 218 210 212 216 222 237 253 265 283 298 306 309 313 317 318 320 320 321 323 323 322 323 320 315 311 309 304 298 289 281 277 274
107 151 128 139 146 318 180 251 267 351 256 14 26 197 223 232 214 207 203 210 217 228 236 247 262 284 297 301 304 311 314 316 318 320 321 323 324 326 325 321 316 310 304 303 304 302 296 281 272
135 130 109 114 186 242 101 263 270 232 116 94 76 119 171 167 165 172 188 203 214 221 229 244 260 280 295 297 300 308 311 314 317 320 322 324 326 326 325 323 320 316 310 302 299 298 294 287 279
208 194 263 240 189 256 133 228 259 280 249 237 59 109 170 175 175 183 192 200 207 217 231 243 255 281 292 297 298 306 311 314 318 322 323 326 327 327 327 326 322 317 309 303 296 290 286 284 281
188 260 228 242 220 77 134 232 245 193 240 266 274 220 207 198 200 204 210 217 222 228 236 245 255 284 296 299 299 306 311 315 320 321 324 327 327 326 326 326 323 322 315 308 304 298 291 281 276
154 217 11 101 71 258 233 264 279 237 256 243 233 226 235 228 230 228 229 233 234 236 240 251 263 287 298 298 299 307 312 316 320 322 326 329 329 327 329 332 328 324 320 314 309 304 298 287 283
257 115 151 238 208 232 225 274 250 173 156 113 166 209 227 244 246 243 250 251 249 243 246 258 267 288 296 292 299 307 313 318 321 325 329 330 330 332 336 333 330 327 322 319 313 306 297 291 286
166 208 229 293 256 246 232 234 229 207 207 198 171 165 223 243 241 245 280 266 259 256 256 263 272 285 290 286 296 305 312 318 322 328 329 331 335 342 337 336 335 332 329 326 317 304 301 294 292
272 220 195 223 204 243 336 258 208 225 233 222 241 255 243 238 250 287 285 273 266 265 261 265 272 280 273 282 295 304 312 319 324 330 332 335 345 347 343 343 340 339 335 333 320 309 309 304 297